When you browse on this site, cookies collect data to enhance your experience and personalize the content and advertising you see.
Visit our Privacy Policy to learn more. By continuing to use the site, you agree to this use of cookies and data.
  • In Lithuania
  • List of Countries
  • For 7 days
  • Water Temperature
  • Weather Map
  • Weather Widgets
  • user-avatar
    Login

    Hourly Weather Oran

    Today, 25 May, Monday

    Time Temperature Precipitation Wind Pressure Humidity
    00:00 +21°C° 0 mm 3 mps 757 mmHg 82%
    01:00 +20°C° 0 mm 3 mps 757 mmHg 85%
    02:00 +20°C° 0 mm 3 mps 757 mmHg 88%
    03:00 +20°C° 0 mm 3 mps 756 mmHg 91%
    04:00 +20°C° 0 mm 3 mps 756 mmHg 89%
    05:00 +20°C° 0 mm 3 mps 756 mmHg 87%
    06:00 +20°C° 0 mm 3 mps 756 mmHg 85%
    07:00 +21°C° 0 mm 3 mps 757 mmHg 80%
    08:00 +22°C° 0 mm 3 mps 757 mmHg 75%
    09:00 +24°C° 0 mm 3 mps 757 mmHg 70%
    10:00 +25°C° 0 mm 4 mps 757 mmHg 65%
    11:00 +27°C° 0 mm 4 mps 757 mmHg 60%
    12:00 +28°C° 0 mm 5 mps 756 mmHg 55%
    13:00 +28°C° 0 mm 5 mps 756 mmHg 56%
    14:00 +28°C° 0 mm 5 mps 756 mmHg 57%
    15:00 +28°C° 0 mm 6 mps 756 mmHg 57%
    16:00 +27°C° 0 mm 6 mps 755 mmHg 58%
    17:00 +26°C° 0 mm 5 mps 755 mmHg 58%
    18:00 +26°C° 0 mm 5 mps 755 mmHg 59%
    19:00 +25°C° 0 mm 4 mps 755 mmHg 61%
    20:00 +24°C° 0 mm 3 mps 755 mmHg 62%
    21:00 +24°C° 0 mm 2 mps 756 mmHg 64%
    22:00 +22°C° 0 mm 3 mps 756 mmHg 67%
    23:00 +22°C° 0 mm 3 mps 756 mmHg 70%

    Tomorrow, 26 May, Tuesday

    Time Temperature Precipitation Wind Pressure Humidity
    00:00 +21°C° 0 mm 4 mps 755 mmHg 74%
    01:00 +21°C° 0 mm 4 mps 755 mmHg 76%
    02:00 +20°C° 0 mm 4 mps 755 mmHg 78%
    03:00 +20°C° 0 mm 4 mps 755 mmHg 80%
    04:00 +20°C° 0 mm 3 mps 755 mmHg 78%
    05:00 +20°C° 0 mm 3 mps 755 mmHg 77%
    06:00 +21°C° 0 mm 3 mps 755 mmHg 76%
    07:00 +22°C° 0 mm 3 mps 755 mmHg 69%
    08:00 +25°C° 0 mm 4 mps 755 mmHg 62%
    09:00 +26°C° 0 mm 5 mps 755 mmHg 55%
    10:00 +27°C° 0 mm 6 mps 755 mmHg 50%
    11:00 +29°C° 0 mm 7 mps 755 mmHg 46%
    12:00 +31°C° 0 mm 8 mps 755 mmHg 42%
    13:00 +31°C° 0 mm 8 mps 754 mmHg 43%
    14:00 +31°C° 0 mm 8 mps 754 mmHg 44%
    15:00 +29°C° 0 mm 8 mps 753 mmHg 45%
    16:00 +28°C° 0 mm 8 mps 753 mmHg 49%
    17:00 +27°C° 0 mm 8 mps 753 mmHg 53%
    18:00 +26°C° 0 mm 8 mps 753 mmHg 57%
    19:00 +24°C° 0 mm 7 mps 753 mmHg 60%
    20:00 +23°C° 0 mm 6 mps 754 mmHg 63%
    21:00 +23°C° 0 mm 5 mps 754 mmHg 67%
    22:00 +22°C° 0 mm 5 mps 754 mmHg 69%
    23:00 +22°C° 0 mm 5 mps 754 mmHg 72%

    Day after tomorrow, 27 May, Wednesday

    Time Temperature Precipitation Wind Pressure Humidity
    00:00 +22°C° 0 mm 4 mps 754 mmHg 74%
    01:00 +21°C° 0.1 mm 4 mps 754 mmHg 77%
    02:00 +21°C° 0.1 mm 4 mps 754 mmHg 79%
    03:00 +21°C° 0.1 mm 4 mps 754 mmHg 82%
    04:00 +21°C° 0.3 mm 4 mps 754 mmHg 81%
    05:00 +21°C° 0.3 mm 5 mps 754 mmHg 80%
    06:00 +21°C° 0.3 mm 5 mps 754 mmHg 79%
    07:00 +22°C° 0.3 mm 6 mps 754 mmHg 73%
    08:00 +23°C° 0.3 mm 6 mps 754 mmHg 67%
    09:00 +24°C° 0.3 mm 6 mps 754 mmHg 61%
    10:00 +26°C° 0.3 mm 7 mps 754 mmHg 59%
    11:00 +27°C° 0.3 mm 8 mps 754 mmHg 58%
    12:00 +27°C° 0.3 mm 8 mps 754 mmHg 56%
    13:00 +27°C° 0 mm 9 mps 754 mmHg 55%
    14:00 +27°C° 0 mm 9 mps 753 mmHg 55%
    15:00 +27°C° 0 mm 9 mps 753 mmHg 54%
    16:00 +26°C° 0 mm 8 mps 753 mmHg 56%
    17:00 +24°C° 0 mm 8 mps 753 mmHg 58%
    18:00 +24°C° 0 mm 7 mps 753 mmHg 61%
    19:00 +23°C° 0.1 mm 6 mps 753 mmHg 66%
    20:00 +22°C° 0.1 mm 6 mps 754 mmHg 71%
    21:00 +21°C° 0.1 mm 5 mps 755 mmHg 76%
    22:00 +21°C° 0.1 mm 5 mps 754 mmHg 77%
    23:00 +21°C° 0.1 mm 5 mps 754 mmHg 79%

    28 May, Thursday

    Time Temperature Precipitation Wind Pressure Humidity
    00:00 +20°C° 0.1 mm 5 mps 754 mmHg 80%
    01:00 +20°C° 0.1 mm 5 mps 753 mmHg 83%
    02:00 +20°C° 0.1 mm 5 mps 753 mmHg 85%
    03:00 +20°C° 0.1 mm 6 mps 753 mmHg 88%
    04:00 +20°C° 0.1 mm 6 mps 753 mmHg 87%
    05:00 +20°C° 0.1 mm 5 mps 753 mmHg 86%
    06:00 +20°C° 0.1 mm 5 mps 753 mmHg 85%
    07:00 +22°C° 0.1 mm 5 mps 753 mmHg 79%
    08:00 +23°C° 0.1 mm 5 mps 753 mmHg 74%
    09:00 +25°C° 0.1 mm 5 mps 753 mmHg 68%
    10:00 +26°C° 0 mm 5 mps 753 mmHg 65%
    11:00 +26°C° 0 mm 6 mps 753 mmHg 62%
    12:00 +27°C° 0 mm 6 mps 753 mmHg 59%
    13:00 +27°C° 0 mm 6 mps 752 mmHg 59%
    14:00 +27°C° 0 mm 6 mps 752 mmHg 59%
    15:00 +27°C° 0 mm 6 mps 752 mmHg 58%
    16:00 +26°C° 0.1 mm 6 mps 752 mmHg 61%
    17:00 +24°C° 0.1 mm 6 mps 752 mmHg 64%
    18:00 +25°C° 0.1 mm 5 mps 752 mmHg 67%
    19:00 +23°C° 0 mm 4 mps 752 mmHg 70%
    20:00 +22°C° 0 mm 3 mps 753 mmHg 73%
    21:00 +23°C° 0 mm 2 mps 753 mmHg 77%
    22:00 +21°C° 0 mm 3 mps 753 mmHg 79%
    23:00 +21°C° 0 mm 3 mps 753 mmHg 81%

    29 May, Friday

    Time Temperature Precipitation Wind Pressure Humidity
    00:00 +21°C° 0 mm 3 mps 753 mmHg 83%
    01:00 +20°C° 0 mm 3 mps 752 mmHg 84%
    02:00 +20°C° 0 mm 3 mps 752 mmHg 85%
    03:00 +20°C° 0 mm 2 mps 752 mmHg 86%
    04:00 +20°C° 0 mm 2 mps 752 mmHg 85%
    05:00 +20°C° 0 mm 2 mps 752 mmHg 83%
    06:00 +20°C° 0 mm 2 mps 752 mmHg 82%
    07:00 +21°C° 0 mm 2 mps 752 mmHg 78%
    08:00 +23°C° 0 mm 2 mps 752 mmHg 75%
    09:00 +22°C° 0 mm 3 mps 752 mmHg 71%
    10:00 +25°C° 0 mm 3 mps 752 mmHg 67%
    11:00 +26°C° 0 mm 4 mps 752 mmHg 63%
    12:00 +27°C° 0 mm 4 mps 752 mmHg 59%
    13:00 +27°C° 0 mm 5 mps 752 mmHg 59%
    14:00 +27°C° 0 mm 6 mps 751 mmHg 59%
    15:00 +28°C° 0 mm 6 mps 751 mmHg 58%
    16:00 +27°C° 0 mm 6 mps 751 mmHg 60%
    17:00 +26°C° 0 mm 6 mps 750 mmHg 61%
    18:00 +24°C° 0 mm 6 mps 750 mmHg 63%
    19:00 +23°C° 0 mm 5 mps 751 mmHg 63%
    20:00 +23°C° 0 mm 4 mps 751 mmHg 64%
    21:00 +22°C° 0 mm 3 mps 751 mmHg 65%
    22:00 +22°C° 0 mm 3 mps 751 mmHg 67%
    23:00 +21°C° 0 mm 3 mps 751 mmHg 70%

    30 May, Saturday

    Time Temperature Precipitation Wind Pressure Humidity
    00:00 +21°C° 0 mm 2 mps 751 mmHg 72%
    01:00 +20°C° 0 mm 2 mps 751 mmHg 75%
    02:00 +20°C° 0 mm 3 mps 751 mmHg 78%
    03:00 +20°C° 0 mm 3 mps 751 mmHg 81%
    04:00 +20°C° 0 mm 3 mps 751 mmHg 80%
    05:00 +20°C° 0 mm 2 mps 751 mmHg 80%
    06:00 +20°C° 0 mm 2 mps 751 mmHg 80%
    07:00 +23°C° 0 mm 2 mps 751 mmHg 72%
    08:00 +24°C° 0 mm 2 mps 751 mmHg 65%
    09:00 +25°C° 0 mm 2 mps 751 mmHg 57%
    10:00 +27°C° 0 mm 3 mps 751 mmHg 51%
    11:00 +29°C° 0 mm 4 mps 751 mmHg 45%
    12:00 +30°C° 0 mm 5 mps 751 mmHg 39%
    13:00 +30°C° 0 mm 5 mps 751 mmHg 38%
    14:00 +30°C° 0 mm 6 mps 750 mmHg 37%
    15:00 +30°C° 0 mm 6 mps 750 mmHg 35%
    16:00 +29°C° 0 mm 6 mps 750 mmHg 37%
    17:00 +28°C° 0 mm 6 mps 750 mmHg 39%
    18:00 +27°C° 0 mm 6 mps 750 mmHg 41%
    19:00 +26°C° 0 mm 5 mps 750 mmHg 45%
    20:00 +25°C° 0 mm 4 mps 750 mmHg 49%
    21:00 +23°C° 0 mm 4 mps 750 mmHg 54%
    22:00 +22°C° 0 mm 3 mps 750 mmHg 58%
    23:00 +22°C° 0 mm 3 mps 750 mmHg 61%
    Show more